Location: Unspecified
(0.0000°N, 0.0000°E)
Time: 09:27:30
(UTC+00:00)

A-11 Canister half - All Passes

Search period start: 05 July 2015 00:00
Search period end: 15 July 2015 00:00
Orbit: 1527 x 1682 km, 47.3° (Epoch: 04 July)

Date Brightness Start Highest point End Pass type
(mag) Time Alt. Az. Time Alt. Az. Time Alt. Az.
05 Jul - 08:14:21 10° S 08:21:16 21° SE 08:28:38 10° E daylight
05 Jul - 10:16:39 10° SW 10:26:50 81° NW 10:36:42 10° NE daylight
05 Jul - 12:26:48 10° W 12:32:28 15° NW 12:37:20 10° NNW daylight
05 Jul - 21:04:21 10° NNW 21:13:00 45° NE 21:21:56 10° ESE visible
05 Jul - 23:09:26 10° WNW 23:17:58 38° SW 23:26:34 10° SSE visible
06 Jul - 07:53:05 10° S 07:59:37 20° SE 08:06:39 10° E daylight
06 Jul - 09:55:03 10° SW 10:05:14 86° NW 10:15:10 10° NE daylight
06 Jul - 12:04:37 10° W 12:10:49 17° NW 12:16:16 10° N daylight
06 Jul - 20:42:56 10° NNW 20:51:27 42° NE 21:00:14 10° ESE visible
06 Jul - 22:47:45 10° WNW 22:56:24 41° SW 23:05:08 10° SSE visible
07 Jul - 07:31:51 10° S 07:37:57 18° SE 07:44:37 10° E daylight
07 Jul - 09:33:28 10° SW 09:43:39 89° SE 09:53:37 10° NE daylight
07 Jul - 11:42:30 10° W 11:49:10 19° NW 11:55:08 10° N daylight
07 Jul - 20:21:32 10° NNW 20:29:53 39° NE 20:38:30 10° ESE visible
07 Jul - 22:26:04 10° WNW 22:34:50 44° SW 22:43:42 10° SSE visible
08 Jul - 07:10:41 10° S 07:16:16 17° SE 07:22:32 10° E daylight
08 Jul - 09:11:53 10° SW 09:22:05 84° SE 09:32:03 10° NE daylight
08 Jul - 11:20:27 10° W 11:27:32 20° NW 11:33:56 10° N daylight
08 Jul - 20:00:10 10° NNW 20:08:18 36° NE 20:16:45 10° ESE visible
08 Jul - 22:04:24 10° WNW 22:13:15 47° SW 22:22:15 10° SSE visible
09 Jul - 06:49:33 10° SSE 06:54:36 15° SE 07:00:23 10° ESE daylight
09 Jul - 08:50:19 10° SW 09:00:30 79° SE 09:10:29 10° NE daylight
09 Jul - 10:58:26 10° W 11:05:53 22° NW 11:12:42 10° N daylight
09 Jul - 19:38:47 10° NNW 19:46:45 33° NE 19:55:00 10° ESE visible
09 Jul - 21:42:45 10° WNW 21:51:42 50° SW 22:00:47 10° SSE visible
10 Jul - 06:28:31 10° SSE 06:32:55 14° SE 06:38:07 10° ESE daylight
10 Jul - 08:28:45 10° SSW 08:38:54 74° SE 08:48:53 10° NE daylight
10 Jul - 10:36:29 10° W 10:44:15 24° NW 10:51:27 10° N daylight
10 Jul - 19:17:26 10° N 19:25:10 31° NE 19:33:13 10° ESE visible
10 Jul - 21:21:08 10° NW 21:30:09 54° SW 21:39:18 10° SSE visible
11 Jul - 06:07:36 10° SSE 06:11:13 13° SE 06:15:44 10° ESE daylight
11 Jul - 08:07:13 10° SSW 08:17:19 70° SE 08:27:17 10° NE daylight
11 Jul - 10:14:33 10° W 10:22:37 26° NW 10:30:09 10° N daylight
11 Jul - 18:56:06 10° N 19:03:35 29° NE 19:11:25 10° ESE visible
11 Jul - 20:59:30 10° NW 21:08:35 58° SW 21:17:50 10° SSE visible
12 Jul - 05:46:53 10° SSE 05:49:32 12° SE 05:53:07 10° ESE daylight
12 Jul - 07:45:41 10° SSW 07:55:44 66° SE 08:05:40 10° NE daylight
12 Jul - 09:52:39 10° WSW 10:01:00 28° NW 10:08:51 10° N daylight
12 Jul - 18:34:47 10° N 18:42:01 26° NE 18:49:36 10° ESE visible
12 Jul - 20:37:53 10° NW 20:47:03 62° SW 20:56:20 10° SSE visible
13 Jul - 05:26:43 10° SE 05:27:50 10° SE 05:29:57 10° SE visible
13 Jul - 07:24:10 10° SSW 07:34:08 61° SE 07:44:02 10° NE daylight
13 Jul - 09:30:47 10° WSW 09:39:22 30° NW 09:47:30 10° N daylight
13 Jul - 18:13:29 10° N 18:20:25 24° NE 18:27:44 10° E daylight
13 Jul - 20:16:17 10° NW 20:25:30 67° SW 20:34:50 10° SSE visible
13 Jul - 22:28:54 10° WSW 22:31:27 11° SW 22:33:10 10° SSW visible
14 Jul - 07:02:40 10° SSW 07:12:32 57° SE 07:22:24 10° NE daylight
14 Jul - 09:08:57 10° WSW 09:17:45 32° NW 09:26:09 10° N daylight
14 Jul - 17:52:12 10° N 17:58:49 23° NE 18:05:52 10° E daylight
14 Jul - 19:54:43 10° NW 20:03:57 71° SW 20:13:19 10° SSE visible
14 Jul - 22:06:09 10° WSW 22:09:48 12° SW 22:12:39 10° SSW visible
